STARLINK-34379

Last updated on Thu Jul 03 2025 00:02:06 GMT+0000 (Coordinated Universal Time)

1 64302U 25123M 25183.58335648 .00054365 00000+0 88161-3 0 9998 2 64302 69.9998 120.0894 0003335 269.3481 317.8589 15.52479472 4964
UTC large
Height (km)
Speed (km/s)
/
Latitude / Longitude
Inclination (degrees)
Orbital Period (minutes)
Azimuth
Elevation
Range (km)
Doppler Factor

Next 0 passes for location: London (51.5072 / 0.1276)

Sorry there are no passes over London.